OPS 4682 DEB, 19954

Orbit data source: Space-Track

OPS 4682 DEB, 19954 is space debris in LEO originally from a launch on Sat, 03 Apr 1965 UTC launched from the Air Force Western Test Range (AFWTR). Debris objects in space refer to the collection of defunct objects orbiting the Earth. Examples of debris include non-operational satellites, rocket bodies, and fragments generated from explosions, collisions, or faulty payload assembly.

Loading next visibility...
Identifier
19954, 1965-027AZ
Orbit
LEO
Country
Flag of USUS
Related business
Manufacturer
Unknown
Mission
Spacecraft
Bus & Motor
Unknown
Mass
Unknown
Launch date (UTC)
1965-04-03 (61 years ago)
Launch vehicle
Unknown
Launch site
Air Force Western Test Range (AFWTR)
Object type
Payload
Rocket body
Debris
Shape & HBR
Unknown shape, 0.1 m
Radar Cross Section
Medium (>0.1 m² and <1 m²)

Expand to show TLE details & history
Last TLE update: 22 hours ago

TLE from 22 hours ago
0 OPS 4682 DEB
1 19954U 65027AZ  26262.73811123  .00000663  00000-0  20185-2 0  9995
2 19954  90.3777  82.3601 0029604 252.1772 121.3741 13.05268372787884
Epoch: 2026-09-19T17:42Z
TLE epoch observation values (Epoch: 2026-09-19T17:42:52.810Z)
Latitude
13.80767°
Longitude
177.90536°
Altitude
1,255.471 km
Speed
7.223 km/s
True Right ascension
05h 29m 04s
True Declination
13° 44' 00"
Sunlit
Object was in daylight at epoch
Visualization orbit readout
Latitude
Unknown
Longitude
Unknown
Altitude
Unknown
Speed
Unknown
Apparent Right ascension
Unknown
Apparent Declination
Unknown
Sunlit
N/A
Visualization observer readout
Local Sidereal Time
08:47:58
Azimuth
Unknown
Elevation
Unknown
Doppler factor
Unknown
Orbital elements
Apogee altitude
1,261.182 km
Perigee altitude
1,216.085 km
Semi-major axis
7,616.771 km
Eccentricity
0.00296
Inclination
90.3777°
RAAN
82.3601°
Arg. of periapsis
252.1772°
True anomaly
121.66318°
Mean anomaly
121.3741°
Eccentric anomaly
121.51869°
Mean motion
3.26503 °/min
Orbital period
110.26 mins
BSTAR
0.0020185
Loading maneuver chart data...
Computing Atmospheric mass density...
Loading historical data...
Loading historical data...
Loading historical data...
Loading historical data...
Loading historical data...
Loading historical data...
Loading historical data...

Documentation

Showing up to 5 results
|